AirNav   Pilot Hours Calculator
 
 1244 users online  

AL17 Lazy Eight Airpark LLC
Wilsonville, Alabama, USA

GOING TO WILSONVILLE?


FAA INFORMATION EFFECTIVE 19 MAY 2022

Location

FAA Identifier: AL17
Lat/Long: 33-14-02.4110N 086-30-46.9320W
33-14.040183N 086-30.782200W
33.2340031,-86.5130367
(estimated)
Elevation: 450 ft. / 137 m (estimated)
Variation: 00W (1985)
From city: 2 miles SW of WILSONVILLE, AL
Time zone: UTC -5 (UTC -6 during Standard Time)
Zip code: 35186

Airport Operations

Airport use: Private use. Permission required prior to landing
Activation date: 10/1977
Control tower: no
ARTCC: ATLANTA CENTER
FSS: ANNISTON FLIGHT SERVICE STATION
Attendance: UNATNDD
Wind indicator: yes
Segmented circle: no

Airport Communications

WX AWOS-3PT at SCD (11 nm E): 119.125 (256-249-2620)
WX ASOS at EET (14 nm W): 134.325 (205-663-5881)

Nearby radio navigation aids

VOR radial/distance  VOR name  Freq  Var
VUZr141/32.6VULCAN VORTAC114.4002E
OKWr090/37.0BROOKWOOD VORTAC111.0000E

Airport Services

Runway Information

Runway 15/33

Dimensions: 3000 x 60 ft. / 914 x 18 m
Surface: turf
RUNWAY 15  RUNWAY 33
Traffic pattern: leftleft
Displaced threshold: 956 ft.1001 ft.
Markings: basicbasic
Obstructions: 41 ft. tree, 143 ft. from runway36 ft. pline, 63 ft. from runway

Airport Ownership and Management from official FAA records

Ownership: Privately-owned
Owner: LAZY EIGHT AIRPARK
444 AIRPARK DR
WILSONVILLE, AL 35186
Phone (205) 405-8005
Manager: WILLIAM GLENN
444 AIR PARK DRIVE
WILSONVILLE, AL 35186
Phone (205) 405-8005

Airport Operational Statistics

Aircraft based on the field: 9
Single engine airplanes: 9
    

Additional Remarks

FOR CD CTC ATLANTA ARTCC AT 770-210-7692.

Instrument Procedures

There are no published instrument procedures at AL17.

Some nearby airports with instrument procedures:

KSCD - Merkel Field Sylacauga Municipal Airport (11 nm E)
KEET - Shelby County Airport (14 nm W)
KEKY - Bessemer Airport (21 nm W)
KBHM - Birmingham-Shuttlesworth International Airport (23 nm NW)
02A - Chilton County Airport (24 nm S)
 
Loc | Ops | Rwys | IFR | FBO | Links
Com | Nav | Svcs | Stats | Notes
Area around AL17 (Lazy Eight Airpark LLC)
 
Road maps at: MapQuest Bing Google
 
Aerial photo
No photo
 
Sectional chart

 
Airport distance calculator
Flying to Lazy Eight Airpark LLC? Find the distance to fly.

From to AL17

Sunrise and sunset
Times for 19-May-2022
 Local
(UTC-5)
 Zulu
(UTC)
Morning civil twilight05:1710:17
Sunrise05:4510:45
Sunset19:4100:41
Evening civil twilight20:0801:08

Current date and time
Zulu (UTC)  19-May-2022 22:59:18
Local (UTC-5)  19-May-2022 17:59:18
 
METAR
KSCD 
11nm E 
192235Z AUTO 22006KT 10SM SCT100 32/17 A2983 RMK AO2 T03150169
KEET 
14nm W 
192253Z AUTO 19007KT 10SM CLR 32/16 A2982 RMK AO2 SLP090 T03170156
KEKY 
21nm W 
192156Z AUTO 21008KT 10SM CLR 31/17 A2984 RMK AO2 SLP950 T03060172
TAF
KEET 
14nm W 
191721Z 1918/2018 23007KT P6SM FEW030 FEW250 FM200200 20005KT P6SM SKC FM200900 20005KT P6SM BKN015 TEMPO 2009/2012 BKN008 FM201400 20008KT P6SM SCT080
NOTAMs
Click for the latest NOTAMs
NOTAMs are issued by the DoD/FAA and will open in a separate window not controlled by AirNav.

 

 
 

Would you like to see your business listed on this page?

 If your business provides an interesting product or service to pilots, flight crews, aircraft, or users of the Lazy Eight Airpark LLC, you should consider listing it here.  To start the listing process, click on the button below
 
Add a business
 

Other Pages about Lazy Eight Airpark LLC

Update a link
 
Copyright © AirNav, LLC. All rights reserved. Privacy Policy  Contact